237P/LINEAR (2009)

Japanese version
Home page
Updated on September 14, 2013

---------------------------------------------------------------------

* Profile

Designation 237P/2010 L2
Recovery Date June 10, 2010
Magnitude
Recoverer Wide Field Infrared Survey Explorer (NASA)

* Pictures

* Orbital Elements

Epoch 2009 Nov. 25.0 TT = JDT 2455160.5
T 2009 Dec. 2.72306 TT                                  MPC
q   2.4157413            (2000.0)            P               Q
n   0.13668869     Peri.   20.63218     +0.04024916     +0.96334018
a   3.7323383      Node   252.43533     -0.95131151     -0.04424305
e   0.3527539      Incl.   16.15387     -0.30559190     +0.26460962
P   7.21

* Magnitudes Graph

        H = 15.0  G = 0.15

---------------------------------------------------------------------

The orbital elements are published on M.P.E.C. 2010-L93.
The magnitudes graphs are made with Comet for Windows.

---------------------------------------------------------------------

Copyright(C) Seiichi Yoshida (comet@aerith.net). All rights reserved.